Powrót do katalogu

QIANFAN-74

AktywnyŁącznośćPO
NORAD 63160·PAYLOAD·🇨🇳 China

Wystrzelony Mar 11, 2025 z Wenchang Space Launch Site

Loading…

Następne Przeloty (najbliższe 24 godziny)

TLE

ŚwieżeSource: Space-Track

Epoka: Sep 14, 2026, 22:01 UTC

1 63160U 25046B   26257.91774926 -.00000002  00000-0 -22020-4 0  9994
2 63160  88.9652 291.2392 0001826  96.3619 263.7740 13.51018705 84760

Śledź QIANFAN-74 w czasie rzeczywistym z AllMySat

Download on the App Store